Regional Weather Roundup
Issued by NWS Midland/Odessa, TX

Skip options and go directly to product.
Home | Oldest Version | Previous Version | Current Version | All | Text Only | Save Text | Print | Product List | Glossary On

Skip product version selection by date and time.   
369
ASUS44 KMAF 260210
RWRMAF
MIDLAND AREA WEATHER ROUNDUP
NATIONAL WEATHER SERVICE MIDLAND TX
800 PM CST SUN JAN 25 2015

...IN SOUTHWEST TEXAS AND SOUTHEAST NEW MEXICO...

CITY           SKY/WX    TMP DP  RH WIND       PRES   REMARKS
ALPINE         MOCLDY    38  30  73 W5        30.36R WCI  34
ANDREWS        FAIR      45  31  58 CALM      30.27R
ARTESIA        CLEAR     43  32  65 S9        30.28R WCI  37
BIG SPRING     CLEAR     47  30  51 S5        30.27R
CARLSBAD       CLEAR     40  28  62 S7        30.27R WCI  35
DRYDEN           N/A     52  32  46 W3        30.25R
FORT STOCKTON  MOCLDY    49  32  52 SE6       30.28R
GUAD PASS      NOT AVBL
HOBBS          CLEAR     45  28  53 CALM      30.28R
MARFA          MOCLDY    37  27  65 W3        30.33R
MIDLAND AIRPK  PTCLDY    51  31  46 W3        30.27R
MIDLAND INTL   PTCLDY    47  31  53 SW6       30.26R
ODESSA         PTCLDY    50  27  40 W3        30.27R
PECOS          MOCLDY    47  31  52 SE6       30.27R
PRESIDIO       FAIR      52  35  52 N14       30.26R
SEMINOLE       CLEAR     45  31  58 CALM      30.28R
SNYDER         CLEAR    N/A N/A N/A NW6       30.24R
WINK           PTCLDY    47  24  40 S8        30.26R
$$
...OTHER STATIONS IN TEXAS...

CITY           SKY/WX    TMP DP  RH WIND       PRES   REMARKS
ABILENE        CLEAR     52  28  39 W6        30.20R
AMARILLO       CLEAR     39  31  72 W6        30.23R WCI  35
AUSTIN         PTCLDY    56  32  40 W5        30.16R
BROWNSVILLE    CLOUDY    57  50  77 S3        30.17R
CORPUS CHRISTI CLOUDY    56  44  64 N8        30.17R
DALLAS FTW     CLEAR     54  24  31 NW10      30.12R
DEL RIO        CLOUDY    58  36  43 NW7       30.22R
EL PASO        MOCLDY    54  26  34 CALM      30.24R
HOUSTON INT    FAIR      61  32  33 NW13      30.08R
LUBBOCK        CLEAR     44  33  65 W5        30.23R
SAN ANGELO     PTCLDY    49  35  58 W6        30.23R
SAN ANTONIO    MOCLDY    53  38  56 NW7       30.19R
WACO           CLEAR     54  27  35 NW9       30.16R
WICHITA FALLS  NOT AVBL
$$
...OTHER LOCATIONS IN NEW MEXICO...

CITY           SKY/WX    TMP DP  RH WIND       PRES   REMARKS
ALAMAGORDO     PTCLDY    45  27  49 N6        30.27R
ALBUQUERQUE    PTCLDY    48  25  40 N7        30.28R
CANNON AFB     PTCLDY    39  30  68 W8        30.24S WCI  34
CLOVIS         PTCLDY    37  28  70 W10       30.24S WCI  30
HOLLOMAN AFB   PTCLDY    42  30  60 N7        30.25R WCI  38
ROSWELL        CLEAR     41  31  67 S9        30.26R WCI  35
RUIDOSO        CLEAR     41  23  48 CALM      30.31S
SANTA FE       CLEAR     35  21  56 NW8       30.27R WCI  29
TRUTH OR CONSE CLEAR     48  20  32 S5        30.26R
TUCUMCARI      CLEAR     38  31  76 W8        30.23R WCI  32
$$

USA.gov is the U.S. government's official web portal to all federal, state and local government web resources and services.